Starlink 33707

operational
NORAD ID: 63401 Int'l Des: 2025-065 Owner: SPXS Country: US Constellation: starlink
LEOCIRCULAR

Über Starlink 33707

Beschreibung wird geladen...

Live-Position

3D-Globus wird geladen...

Nächste Überflüge

Höhenverlauf

Altitude vs Time

uPlot chart will show altitude changes over time

Zweizeiliger Elementsatz

1 63401U 25065C 25351.64394486 .00019564 00000-0 71800-3 0 9996
2 63401 42.9964 210.3030 0001260 291.1462 68.9255 15.27605747 40297
Epoch: 17. Dez. 2025 • Age: 19 hours

Aktueller Status

Höhe 486.7 km
Geschwindigkeit 7.63 km/s
Subsatellitenpunkt 43.04°N, 43.46°E
Startdatum 31. März 2025
Alter 0.7 years
Typ internet

Technische Details

Klassifizierung Payload
Masse 575.00 kg
Trockenmasse 530.00 kg
Gesamtmasse 575.00 kg
Länge 0.30 m
Durchmesser 4.10 m
Spannweite 29.00 m
Form Box + pan
Hersteller SPXS
Bus-Typ Starlink V2MO
Phasenstatus In Orbit
Besitzer/Staat SPXS/US

Große Konstellationen

Loading constellations...